Location: Goettingen
(51.5300°N, 9.9433°E)
Time: 10:33:24
(UTC+01:00)

ISS - Pass Details

Date: 23 March 2023
Orbit: 414 x 423 km, 51.6° (Epoch: 20 March)

Event Time Altitude Azimuth Distance (km) Brightness Sun altitude
Rises 19:27:19 0° 258° (WSW) 2,356 1.4 -8.4°
Reaches altitude 10° 19:29:25 10° 257° (WSW) 1,493 0.2 -8.8°
Maximum altitude 19:32:46 83° 170° (S) 424 -3.8 -9.3°
Enters shadow 19:35:43 13° 82° (E) 1,334 -1.8 -9.7°
